STARLINK-1802 (46702 NORAD) Tracking and Keplerian Element Data

This shows tracking and keplerian element data for the satellite.

Feedback or suggestion? Click here.




ElementValue
Catalog46702
NameSTARLINK-1802
Epoch Orbit177
Epoch Day26.91667824
Epoch Year2021
RAAN337.3424
Inclination53.0555
Eccentricity0.0006762
Argument of Perigee288.7864
Mean Anonmoly280.9607
Mean Motion15.57457384
Decay Rate8.017E-05
L11 46702U 20073AJ 21026.91667824 .00008017 00000-0 11374-3 0 9990
L22 46702 53.0555 337.3424 0006762 288.7864 280.9607 15.57457384 1770

Live tracking and technical data element details for STARLINK-1802 (NORAD 46702). STARLINK-1802 can be tracked NOW for your location showing map with azimuth and elevation plus other details from your city location.

Track the satellite on the map from your city or location and see movement details for azimuth, elevation, latitude, longitude, range, height, and movement on the map or in text.







IsCatalogInMostPopularTable: catalog: 46702, numindb: 29
Update: records affected: 1



GetName: 46702 STARLINK-1802

Hit Count: updated at: Thu, 28 Jan 2021 12:52:25 GMT